Regional Weather Roundup
Issued by NWS Sterling, VA

Home | Current Version | Previous Version | Text Only | Print | Product List | Glossary On
Versions: 1 2 3 4 5 6 7 8 9 10 11 12 13 14 15 16 17 18 19 20 21 22 23 24 25 26 27 28 29 30 31 32 33 34 35 36 37 38 39 40 41 42 43 44 45 46 47 48 49 50
000
ASUS41 KLWX 202310
RWRLWX

REGIONAL WEATHER ROUNDUP
NATIONAL WEATHER SERVICE BALTIMORE MD/WASHINGTON DC
700 PM EDT MON OCT 20 2014

Note: "FAIR" indicates few or no clouds below 12,000 feet
with no significant weather and/or obstructions to visibility.
 TC=TEMPERATURE CELSIUS

 * =Non NWS site. Station does not report precipitation (e.g. rain,
    snow, etc.), thunder, or fog.

DCZ001-MDZ009-015-VAZ040>042-051-053>054-210000-
WASHINGTON METRO

CITY           SKY/WX    TMP DP  RH WIND       PRES   REMARKS
WASHINGTON NAT MOCLDY    65  48  54 S9        29.96R
DULLES         CLOUDY    58  47  66 SE6       29.94S
ANDREWS AFB    MOCLDY    58  47  65 S7        29.96R
FT BELVOIR     MOCLDY    57  51  78 SE2       29.96R
QUANTICO       MOCLDY    63  52  67 S8        29.96R
COLLEGE PARK*  MOCLDY    61  46  59 CALM      29.95S
LEESBURG*      CLOUDY    61  50  67 SW3       29.95S
MANASSAS*      MOCLDY    57  52  82 SE5       29.94S
GAITHERSBURG*  CLOUDY    59  45  58 SE5       29.98S

$$

MDZ006>007-011-014-210000-
BALTIMORE METRO

CITY           SKY/WX    TMP DP  RH WIND       PRES   REMARKS
BWI AIRPORT    MOCLDY    60  45  57 SE5       29.95S
MD SCIENCE CTR   N/A     63  45  51 MISG      29.96R
MARTIN STATE   CLEAR     63  52  67 SE14      29.97S
ANNAPOLIS      PTCLDY    61  44  53 S8        29.96R
FORT MEADE*    PTCLDY    54  46  76 CALM      29.98R

$$

MDZ012-015-019>023-210000-
MARYLAND EASTERN SHORE

CITY           SKY/WX    TMP DP  RH WIND       PRES   REMARKS
OCEAN CITY     CLEAR     59  46  62 SW7       30.00R
SALISBURY      PTCLDY    55  44  66 CALM      30.00R
BAY BRIDGE AP*   N/A     61  45  55 S8        29.97S
EASTON*        MOCLDY    59  46  63 S6        30.01S

$$

MDZ017>025-210000-
SOUTHERN MARYLAND

CITY           SKY/WX    TMP DP  RH WIND       PRES   REMARKS
PATUXENT RIVER MOCLDY    59  41  51 S5        29.98R
ST INIGOES     PTCLDY    62  40  44 S7        29.97S
LEONARDTOWN*   PTCLDY    59  41  51 S3        29.99R

$$

MDZ003>005-210000-
NORTH CENTRAL MARYLAND

CITY           SKY/WX    TMP DP  RH WIND       PRES   REMARKS
FREDERICK*     MOCLDY    61  48  63 VRB3      29.97S
HAGERSTOWN APT CLOUDY    58  41  53 E6        29.93F
WESTMINSTER*   CLOUDY    57  45  62 CALM      29.94F

$$

MDZ501>502-210000-
WESTERN MARYLAND

CITY           SKY/WX    TMP DP  RH WIND       PRES   REMARKS
OAKLAND*       CLOUDY    46  37  71 SW7       29.92F
CUMBERLAND*    CLOUDY    54  43  66 CALM      29.97S

$$

VAZ025>031-210000-
SHENANDOAH VALLEY

CITY           SKY/WX    TMP DP  RH WIND       PRES   REMARKS
WINCHESTER*    LGT RAIN  55  45  67 CALM      29.95R
FRONT ROYAL*   CLOUDY    59  45  58 CALM      29.93R
LURAY*         CLOUDY    61  46  59 NE7       29.93R
NEW MARKET*    CLOUDY    59  43  54 E3        29.93R
STAUNTON*      CLOUDY    62  43  49 S5        29.95S
WAYNESBORO*    FAIR      59  46  62 S5        29.94S

$$

WVZ021-048>050-054>055-210000-
EASTERN WEST VIRGINIA PANHANDLE

CITY           SKY/WX    TMP DP  RH WIND       PRES   REMARKS
MARTINSBURG    CLOUDY    57  44  62 S5        29.94F
PETERSBURG*    CLOUDY   N/A N/A N/A CALM      29.94S

$$

VAZ036>039-050-210000-
CENTRAL FOOTHILLS

CITY           SKY/WX    TMP DP  RH WIND       PRES   REMARKS
CHARLOTTESVILL MOCLDY    61  47  59 S9        29.93S
CULPEPER*      MOCLDY    59  50  72 CALM      29.95R
ORANGE*        MOCLDY    61  50  67 SE5       29.96S
GORDONSVILLE*  FAIR      59  48  67 CALM      29.94S
WARRENTON*     FAIR      61  53  76 SE3       29.94R

$$

VAZ055>057-210000-
NORTH AND CENTRAL PIEDMONT

CITY           SKY/WX    TMP DP  RH WIND       PRES   REMARKS
FREDERICKSBRG* MOCLDY    62  47  59 S7        29.95R
STAFFORD*      MOCLDY    59  45  60 S3        29.99S

$$

NCZ024-NYZ072-PAZ021-071-VAZ022-071-210000-
OTHER REGIONAL OBSERVATIONS

CITY           SKY/WX    TMP DP  RH WIND       PRES   REMARKS
NEW YORK CITY  CLEAR     57  37  47 MISG      30.00S
PHILADELPHIA   MOCLDY    58  44  60 S5        29.98R
PITTSBURGH     CLOUDY    55  42  61 S7        29.88F
ROANOKE        CLOUDY    64  46  52 W5        29.97R
RICHMOND       MOCLDY    61  41  47 S5        29.98R
RALEIGH        PTCLDY    63  48  58 S5        30.00R

$$

ANZ530>537-210000-
MARINE OBSERVATIONS

STATION/POSITION TIME  TEMP    WIND        PRES
                       AIR SEA DIR/SP/G
                 (UTC) (F)     (DEG/KT/KT) (MB)
THOMAS PT LIGHT  2300   64 64  190/ 16/ 19 1015.6R
BALT KEY BRIDGE  2300   62     150/ 10/ 11 1013.9R
COVE POINT       2300   62     200/ 11/ 12 1014.9R
LEWISETTA        2300   61 62  190/  5/  7 1014.8S
SOLOMONS ISLAND  2300      66                N/A
PINEY POINT      2300          210/ 10/ 11   N/A

$$



USA.gov is the U.S. government's official web portal to all federal, state and local government web resources and services.